KAZSTSAT

Last updated on Thu Jul 03 2025 00:02:30 GMT+0000 (Coordinated Universal Time)

1 43783U 18099AB 25183.59196843 .00001334 00000+0 11538-3 0 9997 2 43783 97.4727 225.6490 0008810 132.9273 227.2691 14.98754109358929
UTC large
Height (km)
Speed (km/s)
/
Latitude / Longitude
Inclination (degrees)
Orbital Period (minutes)
Azimuth
Elevation
Range (km)
Doppler Factor

Next 0 passes for location: London (51.5072 / 0.1276)

Sorry there are no passes over London.